Home   Weather   Kawasaki   Past weeks
Flag for Japan

Past Weather in Kawasaki, Japan — Yesterday and Last 2 Weeks

Now
84 °F

Broken clouds.


Feels Like: 92 °F
Forecast: 82 / 76 °F
Wind: 15 mph from South

Location: Tokyo International Airport

Current Time: Jul 18, 2019 at 3:59:28 pm

Latest Report: Jul 18, 2019 at 3:00 pm


Visibility: N/A

Pressure: 29.89 "Hg

Humidity: 74%

Dew Point: 75 °F

Location of KawasakiLocation

Past Weather in Kawasaki — Graph

°F

Kawasaki Temperature Yesterday

Maximum temperature yesterday: 79 °F (at 2:00 pm)
Minimum temperature yesterday: 70 °F (at 12:00 am)
Average temperature yesterday: 74 °F

High & Low Weather Summary for the Past Weeks

 TemperatureHumidityPressure
High88 °F (Jul 18, 1:00 pm)100% (Jul 3, 10:07 pm)30.01 "Hg (Jul 3, 10:07 pm)
Low66 °F (Jul 7, 8:00 pm)65% (Jul 11, 11:30 am)29.53 "Hg (Jul 14, 10:42 am)
Average71 °F89%29.77 "Hg
* Reported Jul 3 2:00 pm — Jul 18 2:30 pm, Kawasaki. Weather by CustomWeather, © 2019

Note: Actual official high and low records may vary slightly from our data, if they occured in-between our weather recording intervals... More about our weather records

Advertising

Kawasaki Weather History for the Previous 24 Hours

Scroll right to see more
 ConditionsComfort  
Time TempWeatherWind HumidityBarometerVisibility
2:30 pm
Thu, Jul 18
86 °FBroken clouds.12 mph75%29.89 "HgN/A
2:00 pm86 °FBroken clouds.12 mph70%29.89 "HgN/A
1:30 pm86 °FBroken clouds.12 mph70%29.92 "HgN/A
1:00 pm88 °FBroken clouds.10 mph70%29.92 "HgN/A
12:30 pm82 °FBroken clouds.10 mph79%29.92 "HgN/A
12:00 pm84 °FBroken clouds.13 mph70%29.92 "HgN/A
11:30 am81 °FBroken clouds.10 mph89%29.95 "HgN/A
11:00 am79 °FPartly sunny.6 mph84%29.95 "HgN/A
10:30 am79 °FBroken clouds.2 mph89%29.95 "HgN/A
10:00 am77 °FBroken clouds.5 mph89%29.95 "HgN/A
9:30 am77 °FPartly sunny.3 mph94%29.98 "HgN/A
9:00 am75 °FPartly sunny.5 mph94%29.95 "HgN/A
8:30 am75 °FFog.3 mph94%29.95 "Hg5 mi
8:00 am73 °FFog.3 mph100%29.95 "Hg5 mi
7:30 am73 °FFog.3 mph94%29.98 "Hg4 mi
7:00 am73 °FBroken clouds.5 mph94%29.95 "Hg4 mi
6:30 am73 °FBroken clouds.5 mph94%29.95 "Hg4 mi
6:00 am73 °FBroken clouds.5 mph94%29.95 "Hg4 mi
5:30 am72 °FFog.6 mph100%29.95 "Hg4 mi
5:00 am72 °FFog.6 mph100%29.95 "Hg4 mi
4:30 am72 °FFog.3 mph100%29.95 "Hg4 mi
4:00 am72 °FPassing clouds.2 mph100%29.95 "Hg6 mi
3:30 am72 °FPassing clouds.1 mph100%29.95 "Hg6 mi
3:00 am73 °FPassing clouds.3 mph94%29.95 "Hg6 mi
2:30 am75 °FPartly cloudy.7 mph89%29.95 "Hg6 mi
2:00 am75 °FPassing clouds.8 mph89%29.95 "Hg6 mi
1:30 am75 °FPassing clouds.9 mph89%29.92 "HgN/A
1:00 am75 °FPassing clouds.8 mph89%29.95 "HgN/A
12:30 am75 °FPassing clouds.9 mph89%29.95 "HgN/A
12:00 am75 °FPassing clouds.8 mph89%29.95 "HgN/A
11:30 pm
Wed, Jul 17
75 °FPassing clouds.10 mph89%29.95 "HgN/A
11:00 pm75 °FPassing clouds.9 mph89%29.95 "HgN/A
10:30 pm77 °FPassing clouds.10 mph83%29.98 "HgN/A
10:00 pm73 °FPassing clouds.9 mph94%29.95 "HgN/A
9:30 pm75 °FPassing clouds.8 mph89%29.98 "HgN/A
9:00 pm77 °FPassing clouds.12 mph83%29.95 "HgN/A
8:30 pm75 °FPassing clouds.14 mph89%29.95 "HgN/A
8:00 pm77 °FPartly cloudy.12 mph83%29.95 "HgN/A
7:30 pm77 °FPassing clouds.13 mph89%29.95 "HgN/A
7:00 pm79 °FPassing clouds.15 mph79%29.92 "HgN/A
6:30 pm79 °FPartly sunny.13 mph79%29.92 "HgN/A
6:00 pm79 °FScattered clouds.8 mph84%29.92 "HgN/A
5:30 pm79 °FPassing clouds.5 mph79%29.89 "HgN/A
5:00 pm79 °FPassing clouds.5 mph79%29.89 "HgN/A
4:30 pm79 °FPassing clouds.6 mph79%29.89 "HgN/A
4:00 pm79 °FPassing clouds.5 mph79%29.89 "HgN/A
3:30 pm79 °FPassing clouds.7 mph84%29.89 "HgN/A
3:00 pm79 °FPassing clouds.7 mph84%29.89 "HgN/A
Weather by CustomWeather, © 2019

See weather overview